Погода в Покровке

Россия / Приморский край     43°57′03″N   131°38′07″E
темп.,
°C
ветер,
м/с
пор.,
м/с
влажн.,
%
обл.,
%
осадки,
мм/ч
давл.,
гПа
погр.,
м
19 сентября, вс
вс1901:00+12с2464100 0.0 102076
04:00+11с3567100 0.0 102093
07:00+9с237298 0.0 102040
10:00+15ссв2242100 0.0 1020464
13:00+20ссв2133100 0.0 1018886
16:00+22всв3234100 0.0 10161068
19:00+16ссв6945100 0.0 1019343
22:00+12ссв3868100 0.0 1021279
20 сентября, пн
пн2001:00+11с3680100 0.0 1021210
04:00+10с3683100 0.0 1021196
07:00+10ссз3578100 0.0 1021136
10:00+14с225495 0.0 1021448
13:00+19юв2344100 0.0 1019741
16:00+20ю6764100 0.0 1016855
19:00+18ююз61179100 0.7 1016296
22:00+15юв3698100 1.6 1015171
21 сентября, вт
вт2101:00+16юв3997100 1.5 1013274
04:00+15вюв3897100 3.9 1012240
07:00+14в4896100 3.8 1010268
10:00+15юв41395100 9.3 1009783
13:00+16юв61394100 4.9 1006955
16:00+17юв51193100 6.3 1004632
19:00+17ююв3795100 2.5 1002256
22:00+18ю61496100 6.3 1002824
22 сентября, ср
ср2201:00+18ююв599867 0.6 1002385
04:00+18ююв259889 2.4 1001176
07:00+16зюз129789 0.6 100218
10:00+20зюз2383100 0.6 1003304
13:00+23з3355100 0.1 1003942
16:00+23ссз225497 0.1 1003897
19:00+18св478763 0.6 1005152
22:00+15ссв379794 2.7 1008329
23 сентября, чт
чт2301:00+15ссв4996100 2.9 1008518
04:00+14с51097100 18.3 1009440
07:00+14с4995100 3.3 1011495
10:00+13с4994100 4.8 1013490
13:00+13с51093100 1.9 1014484
16:00+13с5992100 2.6 1016572
19:00+12с5992100 0.3 1018444
22:00+12с4892100 0.5 1019344